[[{"header":{"parameterUnit":"m.s-1","parameterCategory":1,"la1":30.2991,"la2":30.254,"lo1":-89.0895,"lo2":-89.0444,"dy":0.0017,"dx":0.0017,"nx":28,"ny":28,"refTime":"2025-05-20T21:00:00:Z","depth":0,"parameterNumber":2,"parameterNumberName":"U-component_of_WINDS"},"data":[0,0,0,0,0,0,0,0,0,0,0,0,0,0,0,0,0,0,0,0,0,0,0,0,0,0,0,0,0,0,0,0,0,0,0,0,0,0,0,0,0,0,0,0,0,0,0,0,0,0,0,0,0,0,0,0,0,0,3.2978,3.298,0,3.3126,3.3128,3.3129,3.3126,3.3124,3.3122,3.312,3.3275,3.3281,3.3287,0,0,0,0,0,0,0,0,0,0,0,0,0,3.2698,3.2703,3.2978,3.298,3.2982,3.3126,3.3128,3.313,3.3126,3.3124,3.3121,3.3119,3.3273,3.328,3.3288,0,0,0,0,0,0,0,0,0,0,0,0,0,3.283,3.2705,3.2978,3.2997,3.3001,3.3125,3.3128,3.313,3.3127,3.3124,3.3121,3.3118,3.3271,3.328,3.3289,3.3405,0,0,3.3316,3.332,0,0,0,0,0,0,0,0,3.2823,3.284,3.2993,3.2996,3.3,3.3104,3.3086,3.3222,3.3128,3.3079,3.312,3.3116,3.3221,3.3234,3.3268,3.3412,3.3419,3.3317,3.3322,3.3326,3.3329,0,0,0,0,0,0,0,3.2813,3.2834,3.3037,3.2995,3.2999,3.3,3.3016,3.3112,3.3165,3.3083,3.3083,3.31,3.3223,3.326,3.3272,3.3421,3.3317,3.3325,3.333,3.3334,3.3669,3.3673,0,0,0,0,0,0,3.2799,3.2826,3.3032,3.3041,3.2902,3.3008,3.3025,3.3074,3.3164,3.3175,3.3103,3.31,3.3246,3.3262,3.3278,3.3421,3.3326,3.3335,3.334,3.3666,3.367,3.3674,0,0,0,0,0,0,3.2793,3.2818,3.3026,3.2934,3.296,3.3016,3.3071,3.3079,3.3116,3.3179,3.3189,3.3131,3.3244,3.3265,3.3373,3.3426,3.3339,3.3347,3.3662,3.3667,3.3672,3.3707,0,0,0,0,0,0,3.2785,3.2816,3.2859,3.2935,3.2965,3.3118,3.3074,3.3084,3.3131,3.3128,3.3208,3.3218,3.3243,3.336,3.3382,3.3437,3.3354,3.3657,3.3664,3.367,3.3701,3.3712,3.3722,0,0,0,0,0,3.2775,3.2864,3.2861,3.2886,3.3021,3.3121,3.3138,3.3164,3.3135,3.318,3.3221,3.3216,3.3416,3.3371,3.3396,3.3454,3.3654,3.3662,3.367,3.3696,3.371,3.3722,0,0,0,0,0,0,3.2794,3.2874,3.2872,3.2987,3.3047,3.312,3.3177,3.3178,3.3248,3.3243,3.3273,3.3292,3.34,3.3438,3.3386,3.3572,3.3532,3.3545,3.3543,3.3557,3.3567,3.3556,3.3361,0,0,0,0,0,3.2811,3.2884,3.2951,3.3046,3.3076,3.3122,3.3166,3.3181,3.3245,3.3271,3.332,3.3383,3.346,3.3511,3.3586,3.3707,3.3725,3.3759,3.377,3.3778,3.3789,3.3858,3.3874,3.37,3.37,3.3699,0,0,3.2847,3.29,3.2945,3.3051,3.3099,3.3176,3.3143,3.3225,3.3283,3.3284,3.3389,3.3427,3.35,3.3616,3.3669,3.365,3.3841,3.3788,3.3794,3.3801,3.3867,3.3884,3.3898,3.3705,3.3704,3.3703,0,0,3.2953,3.3,3.3085,3.3134,3.3207,3.3237,3.3258,3.3331,3.3356,3.3462,3.3464,3.3534,3.3667,3.3719,3.3763,3.389,3.3889,3.3914,3.3969,3.4036,3.4049,3.4062,3.4108,3.4124,3.3925,3.3925,3.3925,0,3.299,3.3104,3.3129,3.3212,3.3259,3.3262,3.3349,3.3396,3.3491,3.3524,3.3502,3.3669,3.3718,3.3847,3.3878,3.3913,3.3939,3.3905,3.4045,3.4058,3.407,3.4114,3.4132,3.3928,3.3928,3.3927,3.3927,0,3.3146,3.3226,3.3286,3.3376,3.343,3.3515,3.3554,3.3606,3.3617,3.3649,3.3758,3.3818,3.3905,3.3937,3.3948,3.4068,3.4054,3.4038,3.3998,3.4088,3.4131,3.4148,3.3932,3.3931,3.393,3.3929,0,0,3.3267,3.337,3.3392,3.3433,3.3515,3.3578,3.3664,3.3748,3.3793,3.3858,3.3932,3.4045,3.4031,3.4081,3.4098,3.4156,3.4255,3.4134,3.4136,3.4155,3.4392,3.4404,3.4423,3.4254,3.4258,3.426,3.4386,0,3.3382,3.3532,3.3558,3.3691,3.3765,3.377,3.3845,3.3904,3.3938,3.4008,3.4045,3.4125,3.41,3.413,3.4188,3.4231,3.4303,3.4222,3.4325,3.4328,3.4306,3.4445,3.4457,3.4573,3.4403,3.4406,3.4408,0,3.3536,3.3604,3.3744,3.3817,3.3849,3.3916,3.3996,3.4062,3.413,3.4151,3.4207,3.4218,3.4309,3.4265,3.4392,3.4337,3.438,3.4408,3.4413,3.4424,3.4373,3.446,3.461,3.4628,3.4434,3.4432,3.443,0,3.3611,3.3738,3.3839,3.3874,3.3961,3.4008,3.4047,3.4112,3.4161,3.4232,3.4265,3.4346,3.4391,3.4454,3.4487,3.4452,3.4613,3.4571,3.4634,3.4633,3.4667,3.4665,3.4827,3.4695,3.4694,3.4694,3.4694,0,3.3737,3.3822,3.3874,3.3935,3.4032,3.4062,3.4157,3.4195,3.4253,3.4324,3.4334,3.44,3.444,3.4513,3.454,3.4642,3.4662,3.4682,3.4688,3.4681,3.4679,3.4711,3.4704,3.4699,3.4698,3.4697,3.4696,0,3.3837,3.3874,3.3984,3.4058,3.4078,3.4146,3.421,3.4272,3.4305,3.4395,3.4417,3.4471,3.4557,3.4597,3.4704,3.4722,3.4839,3.4839,3.4815,3.4817,3.4878,3.4872,3.5067,3.5094,3.4943,3.4945,3.4946,0,3.3914,3.398,3.4061,3.4108,3.4148,3.4224,3.4275,3.4307,3.436,3.4443,3.4495,3.4581,3.4652,3.479,3.484,3.4922,3.4925,3.4988,3.4938,3.4929,3.4927,3.4923,3.493,3.4997,3.4998,3.5,3.5001,0,3.4049,3.4065,3.4136,3.4216,3.4275,3.4339,3.4402,3.4441,3.4484,3.4543,3.463,3.4685,3.4795,3.4881,3.4967,3.5009,3.5013,3.5016,3.5035,3.5029,3.5013,3.5023,3.484,3.5011,3.501,3.501,3.5009,3.5009,3.4141,3.42,3.4266,3.4347,3.4397,3.4456,3.4517,3.4559,3.4632,3.4722,3.4738,3.4832,3.49,3.5016,3.5061,3.5136,3.5121,3.5149,3.5156,3.5162,3.5166,3.5,3.5152,3.5152,3.5151,3.5151,3.5151,0,3.4277,3.432,3.4393,3.448,3.4544,3.4541,3.4611,3.4665,3.4747,3.4809,3.4879,3.4981,3.5065,3.5121,3.5207,3.5257,3.5261,3.5278,3.5275,3.5285,3.5174,3.5149,3.5274,3.5274,3.5274,3.5274,3.5273,3.5273,3.4355,3.4455,3.4479,3.4605,3.4648,3.4739,3.478,3.4835,3.4885,3.4998,3.5067,3.5103,3.5164,3.5255,3.5332,3.5347,3.5378,3.5397,3.5411,3.5306,3.5293,3.5281,3.5257,3.5403,3.5403,3.5516,3.5517,3.5518]},{"header":{"parameterUnit":"m.s-1","parameterCategory":1,"la1":30.2991,"la2":30.254,"lo1":-89.0895,"lo2":-89.0444,"dy":0.0017,"dx":0.0017,"nx":28,"ny":28,"refTime":"2025-05-20T21:00:00:Z","depth":0,"parameterNumber":3,"parameterNumberName":"V-component_of_WINDS"},"data":[0,0,0,0,0,0,0,0,0,0,0,0,0,0,0,0,0,0,0,0,0,0,0,0,0,0,0,0,0,0,0,0,0,0,0,0,0,0,0,0,0,0,0,0,0,0,0,0,0,0,0,0,0,0,0,0,0,0,-0.8145,-0.8146,0,-0.8167,-0.8167,-0.8167,-0.8176,-0.8176,-0.8176,-0.8176,-0.8198,-0.8199,-0.8199,0,0,0,0,0,0,0,0,0,0,0,0,0,-0.8112,-0.8112,-0.8145,-0.8146,-0.8146,-0.8167,-0.8167,-0.8167,-0.8176,-0.8176,-0.8176,-0.8176,-0.8198,-0.8199,-0.8199,0,0,0,0,0,0,0,0,0,0,0,0,0,-0.8129,-0.8113,-0.8145,-0.8153,-0.8154,-0.8167,-0.8167,-0.8168,-0.8176,-0.8176,-0.8176,-0.8176,-0.8198,-0.8199,-0.82,-0.8207,0,0,-0.8203,-0.8203,0,0,0,0,0,0,0,0,-0.8128,-0.813,-0.8151,-0.8152,-0.8153,-0.8169,-0.8164,-0.8181,-0.8176,-0.8167,-0.8176,-0.8176,-0.8188,-0.819,-0.8194,-0.8208,-0.8209,-0.8203,-0.8203,-0.8204,-0.8204,0,0,0,0,0,0,0,-0.8127,-0.813,-0.8154,-0.8152,-0.8153,-0.8155,-0.8157,-0.8167,-0.8178,-0.8168,-0.8169,-0.8171,-0.8189,-0.8193,-0.8195,-0.821,-0.8203,-0.8203,-0.8204,-0.8204,-0.8231,-0.8231,0,0,0,0,0,0,-0.8125,-0.8128,-0.8153,-0.8155,-0.814,-0.8156,-0.8158,-0.8164,-0.8178,-0.818,-0.8171,-0.8171,-0.8192,-0.8194,-0.8196,-0.8206,-0.8204,-0.8205,-0.8205,-0.8231,-0.8231,-0.8231,0,0,0,0,0,0,-0.8124,-0.8127,-0.8152,-0.8142,-0.8145,-0.8156,-0.8162,-0.8164,-0.8169,-0.818,-0.8182,-0.8174,-0.8192,-0.8194,-0.8204,-0.8206,-0.8205,-0.8206,-0.823,-0.8231,-0.8231,-0.8225,0,0,0,0,0,0,-0.8123,-0.8126,-0.8129,-0.8142,-0.8146,-0.8161,-0.8163,-0.8165,-0.817,-0.8171,-0.8183,-0.8185,-0.8192,-0.8203,-0.8205,-0.8208,-0.8207,-0.823,-0.8231,-0.8231,-0.8225,-0.8225,-0.8225,0,0,0,0,0,-0.8122,-0.8127,-0.813,-0.8132,-0.815,-0.8161,-0.8163,-0.817,-0.817,-0.8174,-0.8181,-0.8185,-0.8206,-0.8204,-0.8207,-0.8209,-0.823,-0.8231,-0.8231,-0.8225,-0.8225,-0.8225,0,0,0,0,0,0,-0.8115,-0.8129,-0.8132,-0.8142,-0.815,-0.8162,-0.8166,-0.817,-0.8179,-0.8179,-0.8188,-0.819,-0.8199,-0.8205,-0.8203,-0.8218,-0.8218,-0.8219,-0.8213,-0.8213,-0.8213,-0.8212,-0.8207,0,0,0,0,0,-0.8115,-0.8122,-0.8134,-0.8142,-0.8146,-0.8155,-0.816,-0.8165,-0.8174,-0.8178,-0.8186,-0.8195,-0.8203,-0.8209,-0.8217,-0.8226,-0.8229,-0.823,-0.823,-0.8229,-0.823,-0.8235,-0.8236,-0.8232,-0.8232,-0.8232,0,0,-0.8114,-0.8123,-0.8127,-0.8141,-0.8148,-0.8155,-0.8158,-0.8166,-0.8172,-0.8179,-0.8189,-0.8195,-0.8205,-0.8215,-0.8219,-0.822,-0.8232,-0.823,-0.823,-0.823,-0.8235,-0.8236,-0.8236,-0.8232,-0.8232,-0.8232,0,0,-0.8117,-0.8125,-0.8132,-0.8138,-0.8149,-0.8155,-0.8157,-0.8168,-0.8173,-0.8182,-0.8188,-0.8195,-0.8209,-0.8216,-0.8222,-0.8227,-0.8231,-0.8229,-0.8229,-0.8234,-0.8234,-0.8234,-0.8236,-0.8237,-0.823,-0.823,-0.823,0,-0.8116,-0.8127,-0.8135,-0.8142,-0.8148,-0.8154,-0.8161,-0.8168,-0.818,-0.8184,-0.8185,-0.8203,-0.821,-0.8221,-0.8222,-0.8227,-0.8229,-0.8228,-0.8233,-0.8234,-0.8234,-0.8236,-0.8237,-0.823,-0.823,-0.823,-0.823,0,-0.8124,-0.8132,-0.8137,-0.8148,-0.8155,-0.8162,-0.817,-0.8176,-0.818,-0.8186,-0.8196,-0.8205,-0.8215,-0.8218,-0.8222,-0.823,-0.823,-0.8232,-0.8233,-0.8234,-0.8236,-0.8237,-0.8229,-0.8229,-0.8229,-0.823,0,0,-0.8124,-0.814,-0.8141,-0.8146,-0.8158,-0.8165,-0.8172,-0.8182,-0.8186,-0.8195,-0.8201,-0.8213,-0.8215,-0.8221,-0.8226,-0.823,-0.8233,-0.8232,-0.8232,-0.8232,-0.8242,-0.824,-0.8241,-0.8236,-0.8236,-0.8236,-0.8241,0,-0.8129,-0.8142,-0.8149,-0.816,-0.8167,-0.8173,-0.8179,-0.8187,-0.8193,-0.82,-0.8207,-0.8215,-0.8217,-0.822,-0.8225,-0.8232,-0.8236,-0.8232,-0.8242,-0.8242,-0.8239,-0.8242,-0.824,-0.8244,-0.8242,-0.8242,-0.8242,0,-0.8136,-0.8144,-0.8155,-0.8166,-0.8169,-0.8175,-0.8184,-0.8191,-0.82,-0.8204,-0.821,-0.8215,-0.8223,-0.8223,-0.8235,-0.8232,-0.8236,-0.824,-0.8241,-0.8242,-0.8242,-0.8243,-0.8246,-0.8246,-0.8243,-0.8243,-0.8243,0,-0.8135,-0.8148,-0.8157,-0.8161,-0.8174,-0.8177,-0.8183,-0.8192,-0.8197,-0.8205,-0.8209,-0.8218,-0.8223,-0.823,-0.8237,-0.8236,-0.8247,-0.8248,-0.8251,-0.825,-0.8253,-0.8252,-0.8256,-0.8255,-0.8255,-0.8255,-0.8255,0,-0.8139,-0.8146,-0.8156,-0.8161,-0.8169,-0.8176,-0.8184,-0.819,-0.8197,-0.8204,-0.821,-0.8215,-0.8225,-0.8232,-0.8237,-0.8245,-0.8248,-0.8251,-0.8252,-0.825,-0.825,-0.8254,-0.8254,-0.8256,-0.8256,-0.8256,-0.8256,0,-0.8139,-0.8146,-0.8156,-0.8167,-0.8169,-0.8174,-0.8184,-0.8189,-0.8195,-0.8203,-0.8205,-0.8215,-0.8223,-0.8231,-0.8242,-0.8246,-0.8255,-0.8256,-0.8251,-0.8252,-0.8254,-0.8254,-0.826,-0.8261,-0.826,-0.826,-0.826,0,-0.8141,-0.8146,-0.8157,-0.8162,-0.8167,-0.8175,-0.818,-0.8188,-0.8193,-0.8203,-0.8207,-0.8216,-0.8224,-0.8237,-0.8245,-0.8253,-0.8256,-0.8257,-0.8257,-0.8255,-0.8255,-0.8255,-0.8256,-0.8257,-0.8257,-0.8257,-0.8257,0,-0.8144,-0.8147,-0.8155,-0.8163,-0.817,-0.8177,-0.8184,-0.8188,-0.8197,-0.8202,-0.8211,-0.8217,-0.8228,-0.8237,-0.8246,-0.8252,-0.8256,-0.8257,-0.8258,-0.8256,-0.8253,-0.8255,-0.8251,-0.8257,-0.8257,-0.8257,-0.8257,-0.8257,-0.8145,-0.815,-0.8159,-0.8167,-0.8173,-0.8179,-0.8185,-0.8191,-0.8199,-0.8208,-0.8212,-0.8221,-0.823,-0.8243,-0.8248,-0.8255,-0.8256,-0.8258,-0.8258,-0.8258,-0.8258,-0.8252,-0.8257,-0.8257,-0.8257,-0.8257,-0.8257,0,-0.8149,-0.8154,-0.8162,-0.8172,-0.8178,-0.8181,-0.8189,-0.8194,-0.8202,-0.8209,-0.8216,-0.8226,-0.8234,-0.8243,-0.8252,-0.8255,-0.8258,-0.8258,-0.8257,-0.8259,-0.8257,-0.8255,-0.8256,-0.8256,-0.8256,-0.8256,-0.8256,-0.8256,-0.8151,-0.8159,-0.8163,-0.8175,-0.818,-0.8189,-0.8193,-0.8199,-0.8205,-0.8216,-0.8223,-0.8228,-0.8236,-0.8245,-0.8253,-0.8255,-0.8258,-0.8258,-0.8261,-0.8259,-0.8259,-0.8259,-0.8257,-0.8258,-0.8258,-0.8262,-0.8262,-0.8262]}]]